Showing default

LEO 1, 43113

Orbit data source: Space-Track

LEO 1, 43113 is a payload satellite owned by Telesat (Loral) (US) in SSO that was launched on Fri, 12 Jan 2018 UTC via a PSLV-XL launch vehicle from the Sirharikota (SRI). Payload-class satellites include a variety of spacecraft equipped with specific instruments for various scientific and technological missions. These include communications satellites like Starlink; space stations such as the ISS; scientific satellites like the Hubble; Earth observation satellites from companies like Planet Labs, Umbra, and HawkEye 360; GPS; miniature CubeSats for education and research; and military/defense satellites.

Loading next visibility...
Identifier
43113, 2018-004C
Orbit
SSO
Country
Flag of USUS
Related business
Manufacturer
SSTL (Astrium)
Mission
Partially operational Commercial Communications
Bus & Motor
SSTL-42, Unknown motor
Mass
~100 kg wet, ~100 kg dry
Launch date (UTC)
2018-01-12 (8 years ago)
Launch vehicle
PSLV-XL
Launch site
Sirharikota (SRI)
Object type
Payload
Rocket body
Debris
Shape & HBR
Box + 1 Dish, 0.5 m
Radar Cross Section
0.735 m², Medium (>0.1 m² and < 1m²)

Expand to show TLE details & history
Last TLE update: 13 hours ago

TLE from 13 hours ago
0 LEO 1
1 43113U 18004C   25346.73310782  .00005886  00000-0  41519-3 0  9996
2 43113  99.2516 235.7617 0354073 291.3049  65.0698 14.66494717410140
Epoch: 2025-12-12T17:35Z
TLE epoch observation values (Epoch: 2025-12-12T17:35:40.515Z)
Latitude
-0.00003°
Longitude
-109.82761°
Altitude
577.43 km
Speed
7.624 km/s
True Right ascension
15h 43m 02s
True Declination
0° 00' 00"
Sunlit
Object was in daylight at epoch
Visualization orbit readout
Latitude
Unknown
Longitude
Unknown
Altitude
Unknown
Speed
Unknown
Apparent Right ascension
Unknown
Apparent Declination
Unknown
Sunlit
N/A
Visualization observer readout
Local Sidereal Time
05:21:59
Azimuth
Unknown
Elevation
Unknown
Doppler factor
Unknown
Orbital elements
Apogee altitude
918.933 km
Perigee altitude
419.865 km
Semi-major axis
7,047.536 km
Eccentricity
0.03541
Inclination
99.2516°
RAAN
235.7617°
Arg. of periapsis
291.3049°
True anomaly
68.81633°
Mean anomaly
65.0698°
Eccentric anomaly
66.93634°
Mean motion
3.66849 °/min
Orbital period
98.13 mins
BSTAR
0.00041519
Loading maneuver chart data...
Computing Atmospheric mass density...

Documentation

Showing up to 5 results
|